Location: Newark
(36.1358°N, 115.1208°W)
Time: 22:35:04
(UTC+00:00)

Vanguard 1 Rocket - All Passes

Search period start: 18 February 2020 00:00
Search period end: 28 February 2020 00:00
Orbit: 650 x 4226 km, 34.3° (Epoch: 17 February)

Date Brightness Start Highest point End Pass type
(mag) Time Alt. Az. Time Alt. Az. Time Alt. Az.
18 Feb - 07:40:28 10° S 07:43:36 12° SSE 07:46:16 10° SE night (unlit)
18 Feb - 10:03:00 10° SW 10:09:44 33° SSE 10:14:13 10° E night (unlit)
18 Feb - 12:29:27 10° WSW 12:34:30 69° S 12:38:52 10° E visible
18 Feb - 14:54:46 10° W 14:59:01 51° SSW 15:04:34 10° ESE daylight
18 Feb - 17:20:05 10° WSW 17:24:10 20° SSW 17:29:50 10° SSE daylight
19 Feb - 08:51:06 10° SSW 08:58:29 25° SSE 09:03:20 10° ESE night (unlit)
19 Feb - 11:17:36 10° WSW 11:23:46 57° SSE 11:28:09 10° E visible
19 Feb - 13:43:52 10° W 13:48:20 65° S 13:53:04 10° ESE visible
19 Feb - 16:08:55 10° W 16:12:59 27° SSW 16:18:37 10° SE daylight
20 Feb - 07:39:36 10° SSW 07:46:49 19° SSE 07:51:51 10° ESE night (unlit)
20 Feb - 10:05:17 10° SW 10:12:51 44° SSE 10:17:36 10° E visible
20 Feb - 12:32:29 10° W 12:37:39 72° S 12:42:01 10° E visible
20 Feb - 14:58:02 10° W 15:02:08 39° SSW 15:07:15 10° SE daylight
20 Feb - 17:24:53 10° SW 17:27:20 12° SSW 17:30:14 10° S daylight
21 Feb - 06:29:34 10° S 06:34:40 13° SSE 06:38:46 10° SE night (unlit)
21 Feb - 08:52:44 10° SW 09:01:39 34° SSE 09:07:00 10° E night (unlit)
21 Feb - 11:20:27 10° WSW 11:26:53 67° S 11:31:20 10° E visible
21 Feb - 13:47:01 10° W 13:51:27 56° SSW 13:56:04 10° ESE visible
21 Feb - 16:12:43 10° WSW 16:16:06 19° SSW 16:20:24 10° SSE daylight
22 Feb - 07:40:15 10° SSW 07:50:00 26° SSE 07:56:03 10° ESE night (unlit)
22 Feb - 10:07:47 10° WSW 10:15:58 56° SSE 10:20:53 10° E visible
22 Feb - 12:35:32 10° W 12:40:48 70° S 12:45:08 10° ESE visible
22 Feb - 15:01:25 10° W 15:05:12 28° SSW 15:09:44 10° SE daylight
23 Feb - 06:28:25 10° SSW 06:37:52 20° SSE 06:44:18 10° ESE visible
23 Feb - 08:54:42 10° SW 09:04:46 45° SSE 09:10:27 10° E night (unlit)
23 Feb - 11:23:22 10° W 11:30:02 73° S 11:34:32 10° E visible
23 Feb - 13:50:11 10° W 13:54:33 44° SSW 13:58:57 10° SE visible
23 Feb - 16:17:25 10° SW 16:19:12 12° SSW 16:21:10 10° S daylight
24 Feb - 05:18:25 10° S 05:25:13 14° SSE 05:30:37 10° SE visible
24 Feb - 07:41:31 10° SW 07:53:08 35° SSE 07:59:46 10° E night (unlit)
24 Feb - 10:10:27 10° WSW 10:19:05 66° S 10:24:08 10° E visible
24 Feb - 12:38:36 10° W 12:43:56 63° S 12:48:14 10° ESE visible
24 Feb - 15:05:03 10° WSW 15:08:16 20° SSW 15:11:53 10° SSE daylight
25 Feb - 06:28:39 10° SSW 06:41:01 27° SSE 06:48:34 10° E visible
25 Feb - 08:56:57 10° WSW 09:07:51 55° SSE 09:13:45 10° E night (unlit)
25 Feb - 11:26:19 10° W 11:33:10 75° S 11:37:43 10° E visible
25 Feb - 13:53:26 10° W 13:57:36 33° SSW 14:01:41 10° SE daylight
26 Feb - 05:16:46 10° S 05:28:22 20° SSE 05:36:19 10° ESE visible
26 Feb - 07:43:09 10° SW 07:56:13 45° SSE 08:03:14 10° E night (unlit)
26 Feb - 10:13:12 10° WSW 10:22:12 74° S 10:27:21 10° E visible
26 Feb - 12:41:40 10° W 12:47:01 53° SSW 12:51:16 10° ESE visible
26 Feb - 15:09:18 10° SW 15:11:15 13° SSW 15:13:18 10° S daylight
27 Feb - 04:07:24 10° S 04:15:13 13° SE 04:21:33 10° ESE visible
27 Feb - 06:29:31 10° SSW 06:44:06 36° SSE 06:52:20 10° E visible
27 Feb - 08:59:22 10° WSW 09:10:56 65° SSE 09:17:01 10° E night (unlit)
27 Feb - 11:29:17 10° W 11:36:18 72° S 11:40:53 10° ESE visible
27 Feb - 13:56:50 10° W 14:00:35 24° SSW 14:04:11 10° SSE daylight
